TimeCDT,TemperatureF,Dew PointF,Humidity,Sea Level PressureIn,VisibilityMPH,Wind Direction,Wind SpeedMPH,Gust SpeedMPH,PrecipitationIn,Events,Conditions,WindDirDegrees,DateUTC
12:53 AM,73.0,70.0,90,30.07,7.0,SSE,6.9,-,N/A,,Clear,160,2012-09-26 05:53:00
1:53 AM,72.0,69.1,91,30.09,8.0,SSE,5.8,-,N/A,,Clear,150,2012-09-26 06:53:00
2:53 AM,70.0,66.9,90,30.09,8.0,South,4.6,-,N/A,,Clear,180,2012-09-26 07:53:00
3:53 AM,68.0,66.0,93,30.09,10.0,South,3.5,-,N/A,,Clear,170,2012-09-26 08:53:00
4:53 AM,63.0,62.1,97,30.09,4.0,Calm,Calm,-,N/A,,Clear,0,2012-09-26 09:53:00
5:53 AM,63.0,62.1,97,30.10,6.0,SE,4.6,-,N/A,,Clear,140,2012-09-26 10:53:00
6:53 AM,61.0,61.0,100,30.12,5.0,Calm,Calm,-,N/A,,Clear,0,2012-09-26 11:53:00
7:02 AM,60.8,60.8,100,30.10,1.8,Calm,Calm,-,N/A,,Clear,0,2012-09-26 12:02:00
7:28 AM,60.8,60.8,100,30.11,3.0,Calm,Calm,-,N/A,,Clear,0,2012-09-26 12:28:00
7:53 AM,66.0,64.0,93,30.14,8.0,Calm,Calm,-,N/A,,Clear,0,2012-09-26 12:53:00
8:53 AM,71.1,64.9,81,30.14,10.0,SSE,5.8,-,N/A,,Clear,150,2012-09-26 13:53:00
9:53 AM,75.9,66.0,71,30.15,10.0,South,5.8,-,N/A,,Clear,180,2012-09-26 14:53:00
10:53 AM,80.1,66.0,62,30.16,10.0,South,8.1,-,N/A,,Clear,190,2012-09-26 15:53:00
11:53 AM,82.0,64.0,54,30.13,10.0,South,5.8,-,N/A,,Clear,170,2012-09-26 16:53:00
12:53 PM,84.0,61.0,46,30.11,10.0,Variable,3.5,-,N/A,,Clear,0,2012-09-26 17:53:00
1:53 PM,87.1,62.1,43,30.09,10.0,Variable,3.5,-,N/A,,Clear,0,2012-09-26 18:53:00
2:53 PM,86.0,61.0,43,30.08,10.0,Variable,4.6,-,N/A,,Clear,0,2012-09-26 19:53:00
3:53 PM,87.1,61.0,41,30.06,10.0,SSE,8.1,-,N/A,,Clear,150,2012-09-26 20:53:00
4:53 PM,86.0,63.0,46,30.06,10.0,SE,8.1,-,N/A,,Clear,130,2012-09-26 21:53:00
5:53 PM,84.0,63.0,49,30.07,10.0,ESE,8.1,-,N/A,,Clear,120,2012-09-26 22:53:00
6:53 PM,80.1,64.0,58,30.08,10.0,SE,5.8,-,N/A,,Clear,130,2012-09-26 23:53:00
7:53 PM,69.1,64.0,84,30.09,10.0,Calm,Calm,-,N/A,,Clear,0,2012-09-27 00:53:00
8:53 PM,64.0,61.0,90,30.11,10.0,Calm,Calm,-,N/A,,Clear,0,2012-09-27 01:53:00
9:53 PM,63.0,60.1,90,30.12,10.0,Calm,Calm,-,N/A,,Clear,0,2012-09-27 02:53:00
10:53 PM,64.0,62.1,93,30.12,10.0,Calm,Calm,-,N/A,,Clear,0,2012-09-27 03:53:00
11:53 PM,61.0,60.1,97,30.12,10.0,Calm,Calm,-,N/A,,Clear,0,2012-09-27 04:53:00